This is the latest recevied weather packets stored in our database for station/object KI4FRU. If no packets are shown the sender has not sent any weather packets the latest 10 day(s).
| Time | Temp. | Humidity | Pressure | Rain* | Wind** | Luminosity | Snow |
|---|---|---|---|---|---|---|---|
| 1777999932 | 26.67° C | 53% | 1055 hPa | 0 mm | - | 136 W/m² | - |
| 1777999628 | 26.11° C | 55% | 1055 hPa | 0 mm | - | 109 W/m² | - |
| 1777999325 | 26.67° C | 50% | 1055.1 hPa | 0 mm | - | 182 W/m² | - |
| 1777999023 | 26.67° C | 48% | 1055.3 hPa | 0 mm | - | 737 W/m² | - |
| 1777998721 | 26.11° C | 52% | 1055.4 hPa | 0 mm | - | 695 W/m² | - |
| 1777998419 | 25.56° C | 55% | 1055.1 hPa | 0 mm | - | 636 W/m² | - |
| 1777998116 | 25.56° C | 54% | 1055.2 hPa | 0 mm | - | 549 W/m² | - |
| 1777997812 | 24.44° C | 57% | 1055.2 hPa | 0 mm | - | 578 W/m² | - |
| 1777997510 | 23.89° C | 57% | 1055.1 hPa | 0 mm | - | 430 W/m² | - |
| 1777997207 | 24.44° C | 55% | 1055.3 hPa | 0 mm | - | 449 W/m² | - |
| 1777996905 | 25.56° C | 55% | 1055.3 hPa | 0 mm | - | 492 W/m² | - |
| 1777996601 | 24.44° C | 54% | 1055.3 hPa | 0 mm | - | 455 W/m² | - |
| 1777996297 | 23.89° C | 55% | 1055.4 hPa | 0 mm | - | 492 W/m² | - |
| 1777995993 | 23.33° C | 55% | 1055.5 hPa | 0 mm | - | 438 W/m² | - |
| 1777995690 | 22.78° C | 56% | 1055.4 hPa | 0 mm | - | 501 W/m² | - |
| 1777995387 | 23.89° C | 57% | 1055.7 hPa | 0 mm | - | 145 W/m² | - |
| 1777995084 | 23.33° C | 61% | 1055.5 hPa | 0 mm | - | 113 W/m² | - |
| 1777994781 | 22.78° C | 65% | 1055.4 hPa | 0 mm | - | 69 W/m² | - |
| 1777994476 | 22.22° C | 60% | 1055.5 hPa | 0 mm | - | 40 W/m² | - |
| 1777994172 | 22.22° C | 62% | 1055.7 hPa | 0 mm | - | 59 W/m² | - |
| 1777993870 | 22.22° C | 62% | 1055.5 hPa | 0 mm | - | 55 W/m² | - |
| 1777993566 | 21.67° C | 66% | 1055.5 hPa | 0 mm | - | 57 W/m² | - |
| 1777993263 | 21.67° C | 62% | 1055.6 hPa | 0 mm | - | 64 W/m² | - |
| 1777992958 | 21.67° C | 62% | 1055.5 hPa | 0 mm | - | 27 W/m² | - |
| 1777992657 | 21.11° C | 64% | 1055.5 hPa | 0 mm | - | 59 W/m² | - |
* Rain latest hour (hover to see other rain measurements)
** Current wind speed in m/s (hover to see current wind gust speed)